This is the latest recevied weather packets stored in our database for station/object WE1C. If no packets are shown the sender has not sent any weather packets the latest 10 day(s).
| Time | Temp. | Humidity | Pressure | Rain* | Wind** | Luminosity | Snow |
|---|---|---|---|---|---|---|---|
| 1777787533 | 5.56° C | 65% | 1038.5 hPa | 0 mm | - | 0 W/m² | - |
| 1777787228 | 5.56° C | 63% | 1038.9 hPa | 0 mm | - | 0 W/m² | - |
| 1777786925 | 5.56° C | 65% | 1038.9 hPa | 0 mm | - | 0 W/m² | - |
| 1777786623 | 5.56° C | 68% | 1038.9 hPa | 0 mm | - | 0 W/m² | - |
| 1777786321 | 5.56° C | 67% | 1039 hPa | 0 mm | - | 0 W/m² | - |
| 1777786017 | 5.56° C | 68% | 1038.9 hPa | 0 mm | - | 0 W/m² | - |
| 1777785714 | 5.56° C | 68% | 1038.9 hPa | 0 mm | - | 0 W/m² | - |
| 1777785409 | 5.56° C | 70% | 1038.9 hPa | 0 mm | - | 0 W/m² | - |
| 1777785107 | 5.56° C | 71% | 1038.7 hPa | 0 mm | - | 0 W/m² | - |
| 1777784804 | 5.56° C | 71% | 1039.2 hPa | 0 mm | - | 0 W/m² | - |
| 1777784500 | 5.56° C | 71% | 1038.9 hPa | 0 mm | - | 0 W/m² | - |
| 1777784198 | 5.56° C | 66% | 1039.1 hPa | 0 mm | - | 0 W/m² | - |
| 1777783895 | 5.56° C | 65% | 1039.2 hPa | 0 mm | - | 0 W/m² | - |
| 1777783591 | 5.56° C | 69% | 1039.4 hPa | 0 mm | - | 0 W/m² | - |
| 1777783289 | 5.56° C | 65% | 1039.4 hPa | 0 mm | - | 0 W/m² | - |
| 1777782985 | 5.56° C | 70% | 1039.7 hPa | 0 mm | - | 0 W/m² | - |
| 1777782682 | 6.11° C | 67% | 1039.5 hPa | 0 mm | - | 0 W/m² | - |
| 1777782379 | 6.11° C | 64% | 1039.4 hPa | 0 mm | - | 0 W/m² | - |
| 1777782075 | 6.11° C | 66% | 1039.8 hPa | 0 mm | - | 0 W/m² | - |
| 1777781772 | 6.11° C | 71% | 1039.7 hPa | 0 mm | - | 0 W/m² | - |
| 1777781470 | 6.11° C | 62% | 1039.6 hPa | 0 mm | - | 0 W/m² | - |
| 1777781167 | 6.11° C | 65% | 1039.6 hPa | 0 mm | - | 0 W/m² | - |
| 1777780864 | 6.11° C | 65% | 1039.7 hPa | 0 mm | - | 0 W/m² | - |
| 1777780560 | 5.56° C | 70% | 1039.9 hPa | 0 mm | - | 0 W/m² | - |
| 1777780258 | 5.56° C | 71% | 1039.7 hPa | 0 mm | - | 0 W/m² | - |
* Rain latest hour (hover to see other rain measurements)
** Current wind speed in m/s (hover to see current wind gust speed)